Location: Calvatone
(45.1167°N, 10.4333°E)
Time: 12:29:55
(UTC+00:00)

BlueWalker 3 - Pass Details

Date: 28 January 2023
Orbit: 497 x 514 km, 53.2° (Epoch: 29 March)

Event Time Altitude Azimuth Distance (km) Brightness Sun altitude
Rises 17:01:27 0° 229° (SW) 2,583 7.0 -7.7°
Reaches altitude 10° 17:03:37 10° 227° (SW) 1,706 5.8 -8.0°
Maximum altitude 17:07:28 70° 143° (SE) 542 2.0 -8.7°
Enters shadow 17:11:01 12° 61° (ENE) 1,598 3.8 -9.3°
